Time,TemperatureF,DewpointF,PressureIn,WindDirection,WindDirectionDegrees,WindSpeedMPH,WindSpeedGustMPH,Humidity,HourlyPrecipIn,Conditions,Clouds,dailyrainin,SoftwareType,DateUTC
2013-07-23 00:00:00,67.8,65.7,29.86,North,349,0.0,0.0,93,0.00,,,0.01,Wunderground v.1.15,2013-07-23 04:00:00,
2013-07-23 00:05:00,67.8,65.7,29.86,North,349,0.0,0.0,93,0.00,,,0.00,Wunderground v.1.15,2013-07-23 04:05:00,
2013-07-23 00:10:00,67.8,65.7,29.86,North,349,0.0,0.0,93,0.00,,,0.00,Wunderground v.1.15,2013-07-23 04:10:00,
2013-07-23 00:15:00,67.8,65.7,29.85,North,349,0.0,0.0,93,0.00,,,0.00,Wunderground v.1.15,2013-07-23 04:15:00,
2013-07-23 00:20:00,67.8,65.7,29.85,North,349,0.0,0.0,93,0.00,,,0.00,Wunderground v.1.15,2013-07-23 04:20:00,
2013-07-23 00:30:00,67.8,66.0,29.85,North,349,0.0,0.0,94,0.00,,,0.00,Wunderground v.1.15,2013-07-23 04:30:00,
2013-07-23 00:35:00,67.8,66.0,29.85,North,349,0.0,0.0,94,0.00,,,0.00,Wunderground v.1.15,2013-07-23 04:35:00,
2013-07-23 00:39:00,67.8,66.0,29.85,North,349,0.0,0.0,94,0.00,,,0.00,Wunderground v.1.15,2013-07-23 04:39:00,
2013-07-23 00:44:00,67.8,66.0,29.84,North,349,0.0,0.0,94,0.00,,,0.00,Wunderground v.1.15,2013-07-23 04:44:00,
2013-07-23 00:49:00,67.8,66.0,29.84,North,349,0.0,0.0,94,0.00,,,0.00,Wunderground v.1.15,2013-07-23 04:49:00,
2013-07-23 00:55:00,67.8,66.0,29.84,North,349,0.0,0.0,94,0.00,,,0.00,Wunderground v.1.15,2013-07-23 04:55:00,
2013-07-23 01:00:00,67.8,66.0,29.83,North,349,0.0,0.0,94,0.00,,,0.00,Wunderground v.1.15,2013-07-23 05:00:00,
2013-07-23 01:10:00,67.8,66.0,29.83,North,349,0.0,0.0,94,0.00,,,0.00,Wunderground v.1.15,2013-07-23 05:10:00,
2013-07-23 01:15:00,67.8,66.0,29.83,North,349,0.0,0.0,94,0.00,,,0.00,Wunderground v.1.15,2013-07-23 05:15:00,
2013-07-23 01:20:00,67.8,66.0,29.83,North,349,0.0,0.0,94,0.00,,,0.00,Wunderground v.1.15,2013-07-23 05:20:00,
2013-07-23 01:25:00,67.8,66.0,29.83,North,349,0.0,0.0,94,0.00,,,0.00,Wunderground v.1.15,2013-07-23 05:25:00,
2013-07-23 01:30:00,67.8,66.3,29.83,North,349,0.0,0.0,95,0.00,,,0.00,Wunderground v.1.15,2013-07-23 05:30:00,
2013-07-23 01:40:00,67.8,66.3,29.83,North,349,0.0,0.0,95,0.00,,,0.00,Wunderground v.1.15,2013-07-23 05:40:00,
2013-07-23 01:45:00,67.8,66.3,29.82,North,349,0.0,0.0,95,0.00,,,0.00,Wunderground v.1.15,2013-07-23 05:45:00,
2013-07-23 01:50:00,67.8,66.3,29.82,North,349,0.0,0.0,95,0.00,,,0.00,Wunderground v.1.15,2013-07-23 05:50:00,
2013-07-23 01:55:00,67.8,66.3,29.82,North,349,0.0,0.0,95,0.00,,,0.00,Wunderground v.1.15,2013-07-23 05:55:00,
2013-07-23 02:00:00,67.6,66.1,29.81,North,349,0.0,0.0,95,0.00,,,0.00,Wunderground v.1.15,2013-07-23 06:00:00,
2013-07-23 02:05:00,67.6,66.1,29.81,North,349,0.0,0.0,95,0.00,,,0.00,Wunderground v.1.15,2013-07-23 06:05:00,
2013-07-23 02:10:00,67.6,66.1,29.81,North,349,0.0,0.0,95,0.00,,,0.00,Wunderground v.1.15,2013-07-23 06:10:00,
2013-07-23 02:15:00,67.6,66.1,29.80,North,349,0.0,0.0,95,0.00,,,0.00,Wunderground v.1.15,2013-07-23 06:15:00,
2013-07-23 02:25:00,67.6,66.1,29.80,North,349,0.0,0.0,95,0.00,,,0.00,Wunderground v.1.15,2013-07-23 06:25:00,
2013-07-23 02:30:00,67.6,66.1,29.80,North,349,0.0,0.0,95,0.00,,,0.00,Wunderground v.1.15,2013-07-23 06:30:00,
2013-07-23 02:35:00,67.6,66.1,29.80,North,349,0.0,0.0,95,0.00,,,0.00,Wunderground v.1.15,2013-07-23 06:35:00,
2013-07-23 02:40:00,67.4,65.9,29.80,North,349,0.0,0.0,95,0.00,,,0.00,Wunderground v.1.15,2013-07-23 06:40:00,
2013-07-23 02:50:00,67.4,65.9,29.79,North,349,0.0,0.0,95,0.00,,,0.01,Wunderground v.1.15,2013-07-23 06:50:00,
2013-07-23 02:55:00,67.4,65.9,29.79,North,349,0.0,0.0,95,0.00,,,0.01,Wunderground v.1.15,2013-07-23 06:55:00,
2013-07-23 03:00:00,67.4,65.9,29.78,North,349,0.0,0.0,95,0.08,,,0.02,Wunderground v.1.15,2013-07-23 07:00:00,
2013-07-23 03:05:00,67.4,65.9,29.78,North,349,0.0,0.0,95,0.08,,,0.03,Wunderground v.1.15,2013-07-23 07:05:00,
2013-07-23 03:10:00,67.4,66.2,29.78,North,349,0.0,0.0,96,0.20,,,0.03,Wunderground v.1.15,2013-07-23 07:10:00,
2013-07-23 03:20:00,67.3,66.1,29.77,North,349,0.0,0.0,96,0.07,,,0.04,Wunderground v.1.15,2013-07-23 07:20:00,
2013-07-23 03:25:00,67.3,66.1,29.77,North,349,0.0,0.0,96,0.10,,,0.05,Wunderground v.1.15,2013-07-23 07:25:00,
2013-07-23 03:30:00,67.3,66.1,29.76,NNW,342,0.0,0.0,96,0.08,,,0.05,Wunderground v.1.15,2013-07-23 07:30:00,
2013-07-23 03:35:00,67.3,66.1,29.76,NNW,342,0.0,0.0,96,0.05,,,0.05,Wunderground v.1.15,2013-07-23 07:35:00,
2013-07-23 03:40:00,67.1,65.9,29.76,NNW,332,0.0,0.0,96,0.00,,,0.05,Wunderground v.1.15,2013-07-23 07:40:00,
2013-07-23 03:45:00,67.1,66.2,29.75,SW,236,0.0,0.0,97,0.00,,,0.06,Wunderground v.1.15,2013-07-23 07:45:00,
2013-07-23 03:55:00,67.1,66.2,29.75,NNW,346,0.0,0.0,97,0.00,,,0.06,Wunderground v.1.15,2013-07-23 07:55:00,
2013-07-23 04:00:00,66.9,66.0,29.75,NNW,339,0.0,0.0,97,0.04,,,0.07,Wunderground v.1.15,2013-07-23 08:00:00,
2013-07-23 04:05:00,66.9,66.0,29.75,NW,323,0.0,0.0,97,0.04,,,0.07,Wunderground v.1.15,2013-07-23 08:05:00,
2013-07-23 04:10:00,66.9,66.0,29.75,NW,323,0.0,0.0,97,0.04,,,0.07,Wunderground v.1.15,2013-07-23 08:10:00,
2013-07-23 04:15:00,66.9,66.0,29.74,NW,323,0.0,0.0,97,0.00,,,0.07,Wunderground v.1.15,2013-07-23 08:15:00,
2013-07-23 04:25:00,66.9,66.3,29.74,NW,322,0.0,0.0,98,0.00,,,0.08,Wunderground v.1.15,2013-07-23 08:25:00,
2013-07-23 04:30:00,66.9,66.3,29.74,NW,322,0.0,0.0,98,0.00,,,0.08,Wunderground v.1.15,2013-07-23 08:30:00,
2013-07-23 04:35:00,66.9,66.3,29.74,NW,322,0.0,0.0,98,0.00,,,0.08,Wunderground v.1.15,2013-07-23 08:35:00,
2013-07-23 04:40:00,66.9,66.3,29.74,NW,322,0.0,0.0,98,0.00,,,0.09,Wunderground v.1.15,2013-07-23 08:40:00,
2013-07-23 04:50:00,66.9,66.3,29.74,NNW,329,0.0,0.0,98,0.00,,,0.09,Wunderground v.1.15,2013-07-23 08:50:00,
2013-07-23 04:59:00,66.9,66.3,29.73,NW,326,0.0,0.0,98,0.00,,,0.09,Wunderground v.1.15,2013-07-23 08:59:00,
2013-07-23 05:04:00,66.9,66.3,29.73,NNW,346,0.0,0.0,98,0.00,,,0.09,Wunderground v.1.15,2013-07-23 09:04:00,
2013-07-23 05:10:00,66.9,66.3,29.73,NNW,337,0.0,0.0,98,0.00,,,0.09,Wunderground v.1.15,2013-07-23 09:10:00,
2013-07-23 05:15:00,66.9,66.3,29.72,NNW,337,0.0,0.0,98,0.00,,,0.10,Wunderground v.1.15,2013-07-23 09:15:00,
2013-07-23 05:20:00,66.9,66.3,29.72,SSW,210,0.0,0.0,98,0.00,,,0.10,Wunderground v.1.15,2013-07-23 09:20:00,
2013-07-23 05:25:00,66.9,66.3,29.72,North,0,0.0,0.0,98,0.05,,,0.11,Wunderground v.1.15,2013-07-23 09:25:00,
2013-07-23 05:35:00,66.9,66.3,29.72,NNE,18,0.0,0.0,98,0.05,,,0.11,Wunderground v.1.15,2013-07-23 09:35:00,
2013-07-23 05:40:00,66.9,66.3,29.72,North,0,0.0,0.0,98,0.00,,,0.11,Wunderground v.1.15,2013-07-23 09:40:00,
2013-07-23 05:45:00,66.9,66.3,29.71,North,354,0.0,0.0,98,0.00,,,0.11,Wunderground v.1.15,2013-07-23 09:45:00,
2013-07-23 05:50:00,66.9,66.3,29.71,SW,220,0.0,0.0,98,0.00,,,0.11,Wunderground v.1.15,2013-07-23 09:50:00,
2013-07-23 05:55:00,66.8,66.2,29.71,West,260,0.0,0.0,98,0.00,,,0.12,Wunderground v.1.15,2013-07-23 09:55:00,
2013-07-23 06:05:00,66.8,66.2,29.71,WNW,292,0.0,0.0,98,0.00,,,0.12,Wunderground v.1.15,2013-07-23 10:05:00,
2013-07-23 06:10:00,66.8,66.2,29.71,NNW,344,0.0,0.0,98,0.04,,,0.12,Wunderground v.1.15,2013-07-23 10:10:00,
2013-07-23 06:15:00,66.8,66.5,29.71,NNW,344,0.0,0.0,99,0.04,,,0.12,Wunderground v.1.15,2013-07-23 10:15:00,
2013-07-23 06:20:00,66.8,66.5,29.71,NNW,333,0.0,0.0,99,0.04,,,0.13,Wunderground v.1.15,2013-07-23 10:20:00,
2013-07-23 06:25:00,66.8,66.5,29.71,WNW,291,0.0,0.0,99,0.04,,,0.14,Wunderground v.1.15,2013-07-23 10:25:00,
2013-07-23 06:30:00,66.8,66.5,29.70,NE,56,0.0,0.0,99,0.13,,,0.15,Wunderground v.1.15,2013-07-23 10:30:00,
2013-07-23 06:35:00,66.9,66.6,29.70,SW,232,0.0,0.0,99,0.10,,,0.15,Wunderground v.1.15,2013-07-23 10:35:00,
2013-07-23 06:40:00,66.9,66.6,29.70,SW,232,0.0,0.0,99,0.06,,,0.15,Wunderground v.1.15,2013-07-23 10:40:00,
2013-07-23 06:45:00,66.9,66.6,29.70,SW,232,0.0,0.0,99,0.00,,,0.15,Wunderground v.1.15,2013-07-23 10:45:00,
2013-07-23 06:50:00,66.9,66.6,29.70,SW,232,0.0,0.0,99,0.00,,,0.15,Wunderground v.1.15,2013-07-23 10:50:00,
2013-07-23 06:55:00,66.9,66.6,29.70,SW,232,0.0,0.0,99,0.00,,,0.16,Wunderground v.1.15,2013-07-23 10:55:00,
2013-07-23 07:00:00,66.9,66.6,29.69,SW,232,0.0,0.0,99,0.07,,,0.16,Wunderground v.1.15,2013-07-23 11:00:00,
2013-07-23 07:10:00,66.9,66.6,29.69,WNW,285,0.0,0.0,99,0.06,,,0.17,Wunderground v.1.15,2013-07-23 11:10:00,
2013-07-23 07:15:00,66.9,66.6,29.69,WNW,285,0.0,0.0,99,0.06,,,0.17,Wunderground v.1.15,2013-07-23 11:15:00,
2013-07-23 07:24:00,66.9,66.6,29.69,WNW,287,0.0,0.0,99,0.08,,,0.17,Wunderground v.1.15,2013-07-23 11:24:00,
2013-07-23 07:29:00,67.1,66.8,29.68,WNW,287,0.0,0.0,99,0.05,,,0.19,Wunderground v.1.15,2013-07-23 11:29:00,
2013-07-23 07:35:00,67.1,66.8,29.68,WNW,287,0.0,0.0,99,0.05,,,0.20,Wunderground v.1.15,2013-07-23 11:35:00,
2013-07-23 07:44:00,67.1,66.8,29.68,NNW,346,0.0,0.0,99,0.06,,,0.20,Wunderground v.1.15,2013-07-23 11:44:00,
2013-07-23 07:50:00,67.1,66.8,29.68,NNW,346,0.0,0.0,99,0.06,,,0.21,Wunderground v.1.15,2013-07-23 11:50:00,
2013-07-23 07:55:00,67.1,66.8,29.68,NNW,346,0.0,0.0,99,0.05,,,0.21,Wunderground v.1.15,2013-07-23 11:55:00,
2013-07-23 08:00:00,67.1,66.8,29.67,NNW,346,0.0,0.0,99,0.05,,,0.21,Wunderground v.1.15,2013-07-23 12:00:00,
2013-07-23 08:05:00,67.1,66.8,29.67,NNW,346,0.0,0.0,99,0.05,,,0.21,Wunderground v.1.15,2013-07-23 12:05:00,
2013-07-23 08:10:00,67.1,66.8,29.67,NNW,346,0.0,0.0,99,0.05,,,0.23,Wunderground v.1.15,2013-07-23 12:10:00,
2013-07-23 08:20:00,67.1,66.8,29.66,NW,323,0.0,0.0,99,0.05,,,0.23,Wunderground v.1.15,2013-07-23 12:20:00,
2013-07-23 08:25:00,67.1,66.8,29.66,NW,323,0.0,0.0,99,0.23,,,0.23,Wunderground v.1.15,2013-07-23 12:25:00,
2013-07-23 08:30:00,67.1,66.8,29.66,NW,323,0.0,0.0,99,0.23,,,0.23,Wunderground v.1.15,2013-07-23 12:30:00,
2013-07-23 08:35:00,67.1,66.8,29.66,NW,323,0.0,0.0,99,0.20,,,0.23,Wunderground v.1.15,2013-07-23 12:35:00,
2013-07-23 08:40:00,67.1,66.8,29.66,NW,323,0.0,0.0,99,0.07,,,0.23,Wunderground v.1.15,2013-07-23 12:40:00,
2013-07-23 08:50:00,67.1,66.8,29.65,NW,323,0.0,0.0,99,0.13,,,0.23,Wunderground v.1.15,2013-07-23 12:50:00,
2013-07-23 08:55:00,67.1,66.8,29.65,NW,323,0.0,0.0,99,0.13,,,0.23,Wunderground v.1.15,2013-07-23 12:55:00,
2013-07-23 09:00:00,-999.9,-99.9,29.64,North,32767,-999.0,0.0,255,-99.99,,,0.23,Wunderground v.1.15,2013-07-23 13:00:00,
2013-07-23 09:05:00,-999.9,-99.9,29.64,North,32767,-999.0,0.0,255,-99.99,,,0.23,Wunderground v.1.15,2013-07-23 13:05:00,
2013-07-23 09:10:00,-999.9,-99.9,29.64,North,32767,-999.0,0.0,255,-99.99,,,0.23,Wunderground v.1.15,2013-07-23 13:10:00,
2013-07-23 09:15:00,-999.9,-99.9,29.63,NW,323,0.0,0.0,255,0.00,,,0.23,Wunderground v.1.15,2013-07-23 13:15:00,
2013-07-23 09:25:00,-999.9,-99.9,29.63,NW,306,0.0,0.0,255,0.00,,,0.23,Wunderground v.1.15,2013-07-23 13:25:00,
2013-07-23 09:30:00,-999.9,-99.9,29.63,NW,306,0.0,0.0,255,0.00,,,0.23,Wunderground v.1.15,2013-07-23 13:30:00,
2013-07-23 09:35:00,-999.9,-99.9,29.63,NW,308,0.0,0.0,255,0.00,,,0.23,Wunderground v.1.15,2013-07-23 13:35:00,
2013-07-23 09:40:00,-999.9,-99.9,29.63,NW,308,0.0,0.0,255,0.00,,,0.23,Wunderground v.1.15,2013-07-23 13:40:00,
2013-07-23 09:45:00,67.6,-99.9,29.63,NW,308,0.0,0.0,255,0.00,,,0.23,Wunderground v.1.15,2013-07-23 13:45:00,
2013-07-23 09:55:00,67.6,-99.9,29.63,NW,308,0.0,0.0,255,0.00,,,0.23,Wunderground v.1.15,2013-07-23 13:55:00,
2013-07-23 10:00:00,67.6,-99.9,29.62,NW,308,0.0,0.0,255,0.00,,,0.23,Wunderground v.1.15,2013-07-23 14:00:00,
2013-07-23 10:05:00,67.6,-99.9,29.62,NW,308,0.0,0.0,255,0.00,,,0.23,Wunderground v.1.15,2013-07-23 14:05:00,
2013-07-23 10:10:00,-999.9,-99.9,29.62,North,32767,-999.0,0.0,255,-99.99,,,0.23,Wunderground v.1.15,2013-07-23 14:10:00,
2013-07-23 10:15:00,-999.9,-99.9,29.62,North,32767,-999.0,0.0,255,-99.99,,,0.23,Wunderground v.1.15,2013-07-23 14:15:00,
2013-07-23 10:20:00,-999.9,-99.9,29.62,North,32767,-999.0,0.0,255,-99.99,,,0.23,Wunderground v.1.15,2013-07-23 14:20:00,
2013-07-23 10:30:00,-999.9,-99.9,29.61,North,32767,-999.0,0.0,255,-99.99,,,0.23,Wunderground v.1.15,2013-07-23 14:30:00,
2013-07-23 10:35:00,-999.9,-99.9,29.61,North,32767,-999.0,0.0,255,-99.99,,,0.23,Wunderground v.1.15,2013-07-23 14:35:00,
2013-07-23 10:40:00,-999.9,-99.9,29.61,North,32767,-999.0,0.0,255,-99.99,,,0.23,Wunderground v.1.15,2013-07-23 14:40:00,
2013-07-23 10:45:00,-999.9,-99.9,29.61,North,32767,-999.0,0.0,255,-99.99,,,0.23,Wunderground v.1.15,2013-07-23 14:45:00,
2013-07-23 10:50:00,-999.9,-99.9,29.61,North,32767,-999.0,0.0,255,-99.99,,,0.23,Wunderground v.1.15,2013-07-23 14:50:00,
2013-07-23 11:00:00,-999.9,-99.9,29.61,North,32767,-999.0,0.0,255,-99.99,,,0.23,Wunderground v.1.15,2013-07-23 15:00:00,
2013-07-23 11:05:00,-999.9,-99.9,29.61,North,32767,-999.0,0.0,255,-99.99,,,0.23,Wunderground v.1.15,2013-07-23 15:05:00,
2013-07-23 11:10:00,-999.9,-99.9,29.61,North,32767,-999.0,0.0,255,-99.99,,,0.23,Wunderground v.1.15,2013-07-23 15:10:00,
2013-07-23 11:15:00,-999.9,-99.9,29.60,North,32767,-999.0,0.0,255,-99.99,,,0.23,Wunderground v.1.15,2013-07-23 15:15:00,
2013-07-23 11:20:00,-999.9,-99.9,29.60,North,32767,-999.0,0.0,255,-99.99,,,0.23,Wunderground v.1.15,2013-07-23 15:20:00,
2013-07-23 11:25:00,-999.9,-99.9,29.60,North,32767,-999.0,0.0,255,-99.99,,,0.23,Wunderground v.1.15,2013-07-23 15:25:00,
2013-07-23 11:35:00,-999.9,-99.9,29.60,North,32767,-999.0,0.0,255,-99.99,,,0.23,Wunderground v.1.15,2013-07-23 15:35:00,
2013-07-23 11:40:00,-999.9,-99.9,29.60,North,32767,-999.0,0.0,255,-99.99,,,0.23,Wunderground v.1.15,2013-07-23 15:40:00,
2013-07-23 11:45:00,-999.9,-99.9,29.59,North,32767,-999.0,0.0,255,-99.99,,,0.23,Wunderground v.1.15,2013-07-23 15:45:00,
2013-07-23 11:50:00,-999.9,-99.9,29.59,North,32767,-999.0,0.0,255,-99.99,,,0.23,Wunderground v.1.15,2013-07-23 15:50:00,
2013-07-23 11:55:00,-999.9,-99.9,29.59,North,32767,-999.0,0.0,255,-99.99,,,0.23,Wunderground v.1.15,2013-07-23 15:55:00,
2013-07-23 12:05:00,-999.9,-99.9,29.58,North,32767,-999.0,0.0,255,-99.99,,,0.23,Wunderground v.1.15,2013-07-23 16:05:00,
2013-07-23 12:10:00,-999.9,-99.9,29.58,North,32767,-999.0,0.0,255,-99.99,,,0.23,Wunderground v.1.15,2013-07-23 16:10:00,
2013-07-23 12:15:00,-999.9,-99.9,29.58,North,32767,-999.0,0.0,255,-99.99,,,0.23,Wunderground v.1.15,2013-07-23 16:15:00,
2013-07-23 12:24:00,-999.9,-99.9,29.58,North,32767,-999.0,0.0,255,-99.99,,,0.23,Wunderground v.1.15,2013-07-23 16:24:00,
2013-07-23 12:29:00,-999.9,-99.9,29.58,North,32767,-999.0,0.0,255,-99.99,,,0.23,Wunderground v.1.15,2013-07-23 16:29:00,
2013-07-23 12:35:00,-999.9,-99.9,29.58,North,32767,-999.0,0.0,255,-99.99,,,0.23,Wunderground v.1.15,2013-07-23 16:35:00,
2013-07-23 12:44:00,-999.9,-99.9,29.58,North,32767,-999.0,0.0,255,-99.99,,,0.23,Wunderground v.1.15,2013-07-23 16:44:00,
2013-07-23 12:49:00,-999.9,-99.9,29.58,North,32767,-999.0,0.0,255,-99.99,,,0.23,Wunderground v.1.15,2013-07-23 16:49:00,
2013-07-23 12:54:00,-999.9,-99.9,29.58,North,32767,-999.0,0.0,255,-99.99,,,0.23,Wunderground v.1.15,2013-07-23 16:54:00,
2013-07-23 13:00:00,-999.9,-99.9,29.55,North,32767,-999.0,0.0,255,-99.99,,,0.23,Wunderground v.1.15,2013-07-23 17:00:00,
2013-07-23 13:05:00,-999.9,-99.9,29.55,North,32767,-999.0,0.0,255,-99.99,,,0.23,Wunderground v.1.15,2013-07-23 17:05:00,
2013-07-23 13:14:00,-999.9,-99.9,29.55,North,32767,-999.0,0.0,255,-99.99,,,0.23,Wunderground v.1.15,2013-07-23 17:14:00,
2013-07-23 13:20:00,-999.9,-99.9,29.55,North,32767,-999.0,0.0,255,-99.99,,,0.23,Wunderground v.1.15,2013-07-23 17:20:00,
2013-07-23 13:25:00,-999.9,-99.9,29.55,North,32767,-999.0,0.0,255,-99.99,,,0.23,Wunderground v.1.15,2013-07-23 17:25:00,
2013-07-23 13:30:00,-999.9,-99.9,29.55,North,32767,-999.0,0.0,255,-99.99,,,0.23,Wunderground v.1.15,2013-07-23 17:30:00,
2013-07-23 13:35:00,-999.9,-99.9,29.55,North,32767,-999.0,0.0,255,-99.99,,,0.23,Wunderground v.1.15,2013-07-23 17:35:00,
2013-07-23 13:45:00,-999.9,-99.9,29.54,North,32767,-999.0,0.0,255,-99.99,,,0.23,Wunderground v.1.15,2013-07-23 17:45:00,
2013-07-23 13:50:00,-999.9,-99.9,29.54,North,32767,-999.0,0.0,255,-99.99,,,0.23,Wunderground v.1.15,2013-07-23 17:50:00,
2013-07-23 13:55:00,-999.9,-99.9,29.54,North,32767,-999.0,0.0,255,-99.99,,,0.23,Wunderground v.1.15,2013-07-23 17:55:00,
2013-07-23 14:00:00,-999.9,-99.9,29.53,North,32767,-999.0,0.0,255,-99.99,,,0.23,Wunderground v.1.15,2013-07-23 18:00:00,
2013-07-23 14:05:00,-999.9,-99.9,29.53,North,32767,-999.0,0.0,255,-99.99,,,0.23,Wunderground v.1.15,2013-07-23 18:05:00,
2013-07-23 14:10:00,-999.9,-99.9,29.53,North,32767,-999.0,0.0,255,-99.99,,,0.23,Wunderground v.1.15,2013-07-23 18:10:00,
2013-07-23 14:20:00,-999.9,-99.9,29.54,North,32767,-999.0,0.0,255,-99.99,,,0.23,Wunderground v.1.15,2013-07-23 18:20:00,
2013-07-23 14:30:00,-999.9,-99.9,29.54,North,32767,-999.0,0.0,255,-99.99,,,0.23,Wunderground v.1.15,2013-07-23 18:30:00,
2013-07-23 14:35:00,-999.9,-99.9,29.54,North,32767,-999.0,0.0,255,-99.99,,,0.23,Wunderground v.1.15,2013-07-23 18:35:00,
2013-07-23 14:40:00,-999.9,-99.9,29.54,North,32767,-999.0,0.0,255,-99.99,,,0.23,Wunderground v.1.15,2013-07-23 18:40:00,
2013-07-23 14:50:00,-999.9,-99.9,29.53,North,32767,-999.0,0.0,255,-99.99,,,0.23,Wunderground v.1.15,2013-07-23 18:50:00,
2013-07-23 15:00:00,-999.9,-99.9,29.52,North,32767,-999.0,0.0,255,-99.99,,,0.23,Wunderground v.1.15,2013-07-23 19:00:00,
2013-07-23 15:05:00,-999.9,-99.9,29.52,North,32767,-999.0,0.0,255,-99.99,,,0.23,Wunderground v.1.15,2013-07-23 19:05:00,
2013-07-23 15:10:00,-999.9,-99.9,29.52,North,32767,-999.0,0.0,255,-99.99,,,0.23,Wunderground v.1.15,2013-07-23 19:10:00,
2013-07-23 15:15:00,-999.9,-99.9,29.52,North,32767,-999.0,0.0,255,-99.99,,,0.23,Wunderground v.1.15,2013-07-23 19:15:00,
2013-07-23 15:20:00,-999.9,-99.9,29.52,North,32767,-999.0,0.0,255,-99.99,,,0.23,Wunderground v.1.15,2013-07-23 19:20:00,
2013-07-23 15:30:00,-999.9,-99.9,29.52,North,32767,-999.0,0.0,255,-99.99,,,0.23,Wunderground v.1.15,2013-07-23 19:30:00,
2013-07-23 15:35:00,-999.9,-99.9,29.52,North,32767,-999.0,0.0,255,-99.99,,,0.23,Wunderground v.1.15,2013-07-23 19:35:00,
2013-07-23 15:45:00,-999.9,-99.9,29.51,North,32767,-999.0,0.0,255,-99.99,,,0.23,Wunderground v.1.15,2013-07-23 19:45:00,
2013-07-23 15:50:00,-999.9,-99.9,29.51,North,32767,-999.0,0.0,255,-99.99,,,0.23,Wunderground v.1.15,2013-07-23 19:50:00,
2013-07-23 15:55:00,-999.9,-99.9,29.51,North,32767,-999.0,0.0,255,-99.99,,,0.23,Wunderground v.1.15,2013-07-23 19:55:00,
2013-07-23 16:10:00,-999.9,-99.9,29.52,North,32767,-999.0,0.0,255,-99.99,,,0.23,Wunderground v.1.15,2013-07-23 20:10:00,
2013-07-23 16:20:00,-999.9,-99.9,29.51,North,32767,-999.0,0.0,255,-99.99,,,0.23,Wunderground v.1.15,2013-07-23 20:20:00,
2013-07-23 16:25:00,-999.9,-99.9,29.51,North,32767,-999.0,0.0,255,-99.99,,,0.23,Wunderground v.1.15,2013-07-23 20:25:00,
2013-07-23 16:30:00,-999.9,-99.9,29.52,North,32767,-999.0,0.0,255,-99.99,,,0.23,Wunderground v.1.15,2013-07-23 20:30:00,
2013-07-23 16:39:00,72.8,-99.9,29.52,NW,316,0.0,0.0,255,0.00,,,0.23,Wunderground v.1.15,2013-07-23 20:39:00,
2013-07-23 16:44:00,72.8,-99.9,29.51,NW,316,0.0,0.0,255,0.00,,,0.23,Wunderground v.1.15,2013-07-23 20:44:00,
2013-07-23 16:50:00,72.8,-99.9,29.51,NW,316,0.0,0.0,255,0.00,,,0.23,Wunderground v.1.15,2013-07-23 20:50:00,
2013-07-23 16:59:00,-999.9,-99.9,29.51,North,32767,-999.0,0.0,255,-99.99,,,0.23,Wunderground v.1.15,2013-07-23 20:59:00,
2013-07-23 17:04:00,-999.9,-99.9,29.51,North,32767,-999.0,0.0,255,-99.99,,,0.23,Wunderground v.1.15,2013-07-23 21:04:00,
2013-07-23 17:09:00,-999.9,-99.9,29.51,North,32767,-999.0,0.0,255,-99.99,,,0.23,Wunderground v.1.15,2013-07-23 21:09:00,
2013-07-23 17:14:00,-999.9,-99.9,29.51,North,32767,-999.0,0.0,255,-99.99,,,0.23,Wunderground v.1.15,2013-07-23 21:14:00,
2013-07-23 17:20:00,73.9,73.6,29.51,NW,316,0.0,0.0,99,0.00,,,0.23,Wunderground v.1.15,2013-07-23 21:20:00,
2013-07-23 17:30:00,73.9,73.6,29.50,SW,229,0.0,0.0,99,0.00,,,0.23,Wunderground v.1.15,2013-07-23 21:30:00,
2013-07-23 17:35:00,73.9,73.6,29.50,SW,229,0.0,0.0,99,0.00,,,0.23,Wunderground v.1.15,2013-07-23 21:35:00,
2013-07-23 17:44:00,-999.9,-99.9,29.50,North,32767,-999.0,0.0,255,-99.99,,,0.23,Wunderground v.1.15,2013-07-23 21:44:00,
2013-07-23 17:50:00,-999.9,-99.9,29.50,North,32767,-999.0,0.0,255,-99.99,,,0.23,Wunderground v.1.15,2013-07-23 21:50:00,
2013-07-23 17:55:00,-999.9,-99.9,29.50,SE,141,0.0,0.0,255,0.00,,,0.23,Wunderground v.1.15,2013-07-23 21:55:00,
2013-07-23 18:05:00,72.8,71.9,29.50,SE,144,0.0,0.0,97,0.00,,,0.23,Wunderground v.1.15,2013-07-23 22:05:00,
2013-07-23 18:10:00,72.7,71.8,29.50,SE,144,0.0,0.0,97,0.00,,,0.23,Wunderground v.1.15,2013-07-23 22:10:00,
2013-07-23 18:20:00,72.5,-99.9,29.51,SE,144,0.0,0.0,255,0.00,,,0.23,Wunderground v.1.15,2013-07-23 22:20:00,
2013-07-23 18:25:00,72.5,-99.9,29.51,SE,144,0.0,0.0,255,0.00,,,0.23,Wunderground v.1.15,2013-07-23 22:25:00,
2013-07-23 18:30:00,72.5,-99.9,29.52,SE,144,0.0,0.0,255,0.00,,,0.23,Wunderground v.1.15,2013-07-23 22:30:00,
2013-07-23 18:40:00,72.5,-99.9,29.52,SE,144,0.0,0.0,255,0.00,,,0.23,Wunderground v.1.15,2013-07-23 22:40:00,
2013-07-23 18:45:00,72.5,-99.9,29.51,SE,144,0.0,0.0,255,0.00,,,0.23,Wunderground v.1.15,2013-07-23 22:45:00,
2013-07-23 18:50:00,72.5,-99.9,29.51,SE,144,0.0,0.0,255,0.00,,,0.23,Wunderground v.1.15,2013-07-23 22:50:00,
2013-07-23 18:55:00,72.5,-99.9,29.51,SE,144,0.0,0.0,255,0.00,,,0.23,Wunderground v.1.15,2013-07-23 22:55:00,
2013-07-23 19:00:00,-999.9,-99.9,29.52,North,32767,-999.0,0.0,255,-99.99,,,0.23,Wunderground v.1.15,2013-07-23 23:00:00,
2013-07-23 19:10:00,-999.9,-99.9,29.52,North,32767,-999.0,0.0,255,-99.99,,,0.23,Wunderground v.1.15,2013-07-23 23:10:00,
2013-07-23 19:20:00,-999.9,-99.9,29.52,SE,144,0.0,0.0,255,0.00,,,0.23,Wunderground v.1.15,2013-07-23 23:20:00,
2013-07-23 19:25:00,-999.9,-99.9,29.52,SE,144,0.0,0.0,255,0.00,,,0.23,Wunderground v.1.15,2013-07-23 23:25:00,
2013-07-23 19:30:00,-999.9,-99.9,29.54,SE,144,0.0,0.0,255,0.00,,,0.23,Wunderground v.1.15,2013-07-23 23:30:00,
2013-07-23 19:35:00,-999.9,-99.9,29.54,SE,144,0.0,0.0,255,0.00,,,0.23,Wunderground v.1.15,2013-07-23 23:35:00,
2013-07-23 19:40:00,-999.9,-99.9,29.54,North,32767,-999.0,0.0,255,-99.99,,,0.23,Wunderground v.1.15,2013-07-23 23:40:00,
2013-07-23 19:50:00,-999.9,-99.9,29.54,North,32767,-999.0,0.0,255,-99.99,,,0.23,Wunderground v.1.15,2013-07-23 23:50:00,
2013-07-23 19:55:00,-999.9,-99.9,29.54,North,32767,-999.0,0.0,255,-99.99,,,0.23,Wunderground v.1.15,2013-07-23 23:55:00,
2013-07-23 20:00:00,-999.9,-99.9,29.54,North,32767,-999.0,0.0,255,-99.99,,,0.23,Wunderground v.1.15,2013-07-24 00:00:00,
2013-07-23 20:05:00,-999.9,-99.9,29.54,North,32767,-999.0,0.0,255,-99.99,,,0.23,Wunderground v.1.15,2013-07-24 00:05:00,
2013-07-23 20:10:00,-999.9,-99.9,29.54,North,32767,-999.0,0.0,255,-99.99,,,0.23,Wunderground v.1.15,2013-07-24 00:10:00,
2013-07-23 20:19:00,-999.9,-99.9,29.55,North,32767,-999.0,0.0,255,-99.99,,,0.23,Wunderground v.1.15,2013-07-24 00:19:00,
2013-07-23 20:29:00,-999.9,-99.9,29.54,North,32767,-999.0,0.0,255,-99.99,,,0.23,Wunderground v.1.15,2013-07-24 00:29:00,
2013-07-23 20:34:00,-999.9,-99.9,29.54,North,32767,-999.0,0.0,255,-99.99,,,0.23,Wunderground v.1.15,2013-07-24 00:34:00,
2013-07-23 20:40:00,-999.9,-99.9,29.54,North,32767,-999.0,0.0,255,-99.99,,,0.23,Wunderground v.1.15,2013-07-24 00:40:00,
2013-07-23 20:50:00,-999.9,-99.9,29.54,North,32767,-999.0,0.0,255,-99.99,,,0.23,Wunderground v.1.15,2013-07-24 00:50:00,
2013-07-23 20:55:00,-999.9,-99.9,29.54,North,32767,-999.0,0.0,255,-99.99,,,0.23,Wunderground v.1.15,2013-07-24 00:55:00,
2013-07-23 21:04:00,-999.9,-99.9,29.54,North,32767,-999.0,0.0,255,-99.99,,,0.23,Wunderground v.1.15,2013-07-24 01:04:00,
2013-07-23 21:10:00,-999.9,-99.9,29.54,North,32767,-999.0,0.0,255,-99.99,,,0.23,Wunderground v.1.15,2013-07-24 01:10:00,
2013-07-23 21:15:00,-999.9,-99.9,29.54,North,32767,-999.0,0.0,255,-99.99,,,0.23,Wunderground v.1.15,2013-07-24 01:15:00,
2013-07-23 21:20:00,-999.9,-99.9,29.54,North,32767,-999.0,0.0,255,-99.99,,,0.23,Wunderground v.1.15,2013-07-24 01:20:00,
2013-07-23 21:25:00,-999.9,-99.9,29.54,North,32767,-999.0,0.0,255,-99.99,,,0.23,Wunderground v.1.15,2013-07-24 01:25:00,
2013-07-23 21:30:00,-999.9,-99.9,29.55,North,32767,-999.0,0.0,255,-99.99,,,0.23,Wunderground v.1.15,2013-07-24 01:30:00,
2013-07-23 21:40:00,-999.9,-99.9,29.55,North,32767,-999.0,0.0,255,-99.99,,,0.23,Wunderground v.1.15,2013-07-24 01:40:00,
2013-07-23 21:45:00,-999.9,-99.9,29.55,North,32767,-999.0,0.0,255,-99.99,,,0.23,Wunderground v.1.15,2013-07-24 01:45:00,
2013-07-23 21:50:00,-999.9,-99.9,29.55,North,32767,-999.0,0.0,255,-99.99,,,0.23,Wunderground v.1.15,2013-07-24 01:50:00,
2013-07-23 21:55:00,-999.9,-99.9,29.55,North,32767,-999.0,0.0,255,-99.99,,,0.23,Wunderground v.1.15,2013-07-24 01:55:00,
2013-07-23 22:00:00,-999.9,-99.9,29.54,North,32767,-999.0,0.0,255,-99.99,,,0.23,Wunderground v.1.15,2013-07-24 02:00:00,
2013-07-23 22:10:00,-999.9,-99.9,29.54,North,32767,-999.0,0.0,255,-99.99,,,0.23,Wunderground v.1.15,2013-07-24 02:10:00,
2013-07-23 22:15:00,-999.9,-99.9,29.55,North,32767,-999.0,0.0,255,-99.99,,,0.23,Wunderground v.1.15,2013-07-24 02:15:00,
2013-07-23 22:20:00,-999.9,-99.9,29.55,North,32767,-999.0,0.0,255,-99.99,,,0.23,Wunderground v.1.15,2013-07-24 02:20:00,
2013-07-23 22:30:00,-999.9,-99.9,29.55,North,32767,-999.0,0.0,255,-99.99,,,0.23,Wunderground v.1.15,2013-07-24 02:30:00,
2013-07-23 22:39:00,-999.9,-99.9,29.55,North,32767,-999.0,0.0,255,-99.99,,,0.23,Wunderground v.1.15,2013-07-24 02:39:00,
2013-07-23 22:44:00,-999.9,-99.9,29.56,North,32767,-999.0,0.0,255,-99.99,,,0.23,Wunderground v.1.15,2013-07-24 02:44:00,
2013-07-23 22:50:00,-999.9,-99.9,29.56,North,32767,-999.0,0.0,255,-99.99,,,0.23,Wunderground v.1.15,2013-07-24 02:50:00,
2013-07-23 22:59:00,-999.9,-99.9,29.55,North,32767,-999.0,0.0,255,-99.99,,,0.23,Wunderground v.1.15,2013-07-24 02:59:00,
2013-07-23 23:04:00,-999.9,-99.9,29.55,North,32767,-999.0,0.0,255,-99.99,,,0.23,Wunderground v.1.15,2013-07-24 03:04:00,
2013-07-23 23:09:00,-999.9,-99.9,29.55,North,32767,-999.0,0.0,255,-99.99,,,0.23,Wunderground v.1.15,2013-07-24 03:09:00,
2013-07-23 23:14:00,-999.9,-99.9,29.56,North,32767,-999.0,0.0,255,-99.99,,,0.23,Wunderground v.1.15,2013-07-24 03:14:00,
2013-07-23 23:20:00,-999.9,-99.9,29.56,North,32767,-999.0,0.0,255,-99.99,,,0.23,Wunderground v.1.15,2013-07-24 03:20:00,
2013-07-23 23:30:00,-999.9,-99.9,29.56,North,32767,-999.0,0.0,255,-99.99,,,0.23,Wunderground v.1.15,2013-07-24 03:30:00,
2013-07-23 23:35:00,-999.9,-99.9,29.56,North,32767,-999.0,0.0,255,-99.99,,,0.23,Wunderground v.1.15,2013-07-24 03:35:00,
2013-07-23 23:40:00,-999.9,-99.9,29.56,North,32767,-999.0,0.0,255,-99.99,,,0.23,Wunderground v.1.15,2013-07-24 03:40:00,
2013-07-23 23:45:00,-999.9,-99.9,29.56,North,32767,-999.0,0.0,255,-99.99,,,0.23,Wunderground v.1.15,2013-07-24 03:45:00,
2013-07-23 23:50:00,-999.9,-99.9,29.56,North,32767,-999.0,0.0,255,-99.99,,,0.23,Wunderground v.1.15,2013-07-24 03:50:00,
2013-07-23 23:55:00,-999.9,-99.9,29.56,North,32767,-999.0,0.0,255,-99.99,,,0.23,Wunderground v.1.15,2013-07-24 03:55:00,